Butte, MT

11:31 PM MDT on June 23, 2017 (GMT -0600)
Mooney

Weather History for KBTM - November, 2012

Change the Weather History Date:

Friday, November 30, 2012

  Actual Average Record
Temperature  
Mean Temperature 40 °F 20 °F  
Max Temperature 46 °F 32 °F 58 °F (1999)
Min Temperature 33 °F 9 °F -28 °F (1975)
Degree Days  
Heating Degree Days 25 45  
Month to date heating degree days 1076 1118  
Since 1 July heating degree days 2262 2490  
Cooling Degree Days 0 0  
Month to date cooling degree days 0 0  
Year to date cooling degree days 121 81  
Moisture  
Dew Point 30 °F    
Average Humidity 71    
Maximum Humidity 89    
Minimum Humidity 53    
Precipitation  
Precipitation 0.05 in 0.02 in 0.36 in (1919)
Month to date precipitation 0.97 0.60  
Year to date precipitation 8.76 12.26  
Sea Level Pressure  
Sea Level Pressure 29.72 in    
Wind  
Wind Speed 5 mph (South)    
Max Wind Speed 29 mph    
Max Gust Speed 39 mph    
Visibility 9 miles    
Events Rain    
T = Trace of Precipitation, MM = Missing Value Source: NWS Daily Summary

Daily Weather History Graph

Daily Weather History Graph

Search for Another Location

Airport or City:

Trip Planner

Search our weather history database for the weather conditions in past years. The results will help you decide how hot, cold, wet, or windy it might be!

Date:

Astronomy

Nov. 30, 2012 Rise Set
Actual Time 7:50 AM MST 4:46 PM MST
Civil Twilight 7:16 AM MST 5:20 PM MST
Nautical Twilight 6:39 AM MST 5:57 PM MST
Astronomical Twilight 6:03 AM MST 6:33 PM MST
Moon 6:45 PM MST (11/30) 9:25 AM MST (11/30)
Length of Visible Light 10h 03m
Length of Day
8h 56m
Waning Gibbous, 96% of the Moon is Illuminated
Nov 30
Waning Gibbous
Dec 6
Last Quarter
Dec 13
New
Dec 19
First Quarter
Dec 28
Full

Hourly Weather History & Observations

Time (MST) Temp. Windchill Dew Point Humidity Pressure Visibility Wind Dir Wind Speed Gust Speed Precip Events Conditions
12:53 AM 37.9 °F - 27.0 °F 65% 29.85 in 10.0 mi Calm Calm - N/A   Overcast
1:53 AM 36.0 °F 33.3 °F 27.0 °F 70% 29.82 in 10.0 mi WNW 3.5 mph - N/A   Scattered Clouds
2:53 AM 35.1 °F 30.1 °F 28.0 °F 76% 29.80 in 10.0 mi NNE 5.8 mph - N/A   Mostly Cloudy
3:53 AM 34.0 °F 28.8 °F 27.0 °F 75% 29.79 in 10.0 mi ESE 5.8 mph - N/A   Clear
4:53 AM 36.0 °F - 27.0 °F 70% 29.75 in 10.0 mi Calm Calm - N/A   Partly Cloudy
5:53 AM 35.1 °F 31.0 °F 27.0 °F 72% 29.76 in 10.0 mi Variable 4.6 mph - N/A   Scattered Clouds
6:53 AM 39.9 °F - 27.0 °F 60% 29.73 in 10.0 mi Calm Calm - N/A   Partly Cloudy
7:53 AM 43.0 °F 36.8 °F 28.0 °F 56% 29.68 in 10.0 mi South 11.5 mph 19.6 mph N/A   Mostly Cloudy
8:53 AM 44.1 °F 40.1 °F 28.0 °F 53% 29.69 in 10.0 mi SSW 6.9 mph - N/A   Mostly Cloudy
9:53 AM 44.1 °F 37.4 °F 28.9 °F 55% 29.65 in 10.0 mi South 13.8 mph - N/A   Scattered Clouds
10:53 AM 44.1 °F 41.5 °F 30.0 °F 58% 29.65 in 10.0 mi SSW 4.6 mph - N/A   Partly Cloudy
11:53 AM 44.1 °F 38.1 °F 30.9 °F 60% 29.64 in 10.0 mi SSE 11.5 mph - N/A   Overcast
12:53 PM 44.1 °F 40.8 °F 30.9 °F 60% 29.63 in 10.0 mi SE 5.8 mph - N/A   Overcast
1:53 PM 45.0 °F 41.8 °F 32.0 °F 60% 29.62 in 10.0 mi South 5.8 mph - N/A   Overcast
2:45 PM 39.2 °F 28.3 °F 33.8 °F 81% 29.68 in 1.8 mi West 25.3 mph 39.1 mph 0.02 in Rain Rain
2:53 PM 39.9 °F 35.1 °F 35.1 °F 83% 29.68 in 1.2 mi West 6.9 mph 34.5 mph 0.05 in Rain Light Rain
2:58 PM 39.2 °F 35.9 °F 35.6 °F 87% 29.68 in 4.0 mi WSW 4.6 mph 20.7 mph 0.00 in Rain Light Rain
3:34 PM 39.2 °F 33.6 °F 33.8 °F 81% 29.70 in 10.0 mi SSE 8.1 mph - 0.00 in Rain Light Rain
3:53 PM 39.0 °F 34.0 °F 33.1 °F 79% 29.72 in 10.0 mi SSE 6.9 mph - 0.00 in   Overcast
4:03 PM 39.2 °F 32.5 °F 32.0 °F 75% 29.70 in 10.0 mi SE 10.4 mph - N/A   Overcast
4:53 PM 37.9 °F 35.5 °F 32.0 °F 79% 29.73 in 10.0 mi SSE 3.5 mph - N/A   Mostly Cloudy
5:53 PM 39.0 °F - 32.0 °F 76% 29.73 in 10.0 mi Calm Calm - N/A   Mostly Cloudy
6:53 PM 36.0 °F 31.1 °F 32.0 °F 86% 29.74 in 10.0 mi South 5.8 mph - N/A   Mostly Cloudy
7:53 PM 36.0 °F - 30.9 °F 82% 29.73 in 10.0 mi Calm Calm - N/A   Clear
8:53 PM 33.8 °F 27.0 °F 30.2 °F 87% 29.73 in 10.0 mi ESE 8.1 mph - N/A   Clear
9:53 PM 34.0 °F - 30.9 °F 89% 29.74 in 10.0 mi Calm Calm - N/A   Mostly Cloudy
10:53 PM 33.1 °F 28.7 °F 30.9 °F 92% 29.74 in 10.0 mi East 4.6 mph - N/A   Overcast
11:53 PM 34.0 °F - 30.9 °F 89% 29.74 in 10.0 mi Calm Calm - N/A   Overcast